Location: Allaines
(49.9632°N, 2.9458°E)
Time: 04:53:29
(UTC+00:00)

COSMOS 2428 - Pass Details

Date: 09 April 2020
Orbit: 846 x 856 km, 70.9° (Epoch: 29 May)

Event Time Altitude Azimuth Distance (km) Brightness Sun altitude
Rises 22:54:24 0° 333° (NNW) 3,427 7.0 -30.8°
Reaches altitude 10° 22:57:23 10° 347° (NNW) 2,486 6.0 -30.9°
Maximum altitude 23:01:55 24° 40° (NE) 1,701 4.5 -31.1°
Enters shadow 23:03:39 21° 66° (ENE) 1,833 4.5 -31.2°
